QPF
0.05 0.07 0.07 0.11 0.08 0.05 0.07 0.04 0.02 0.00 0.00 0.00 0.00 0.00 0.00 0.00 0.00 0.00 0.00 0.00 0.00 0.00 0.01 0.00 0.00 0.00 0.00 0.00 0.00 0.00 0.00 0.00 0.00 0.00 0.00 0.00 0.00 0.01 0.01 0.01 0.00 0.00 0.00
0.01 0.02 0.08 0.12 0.08 0.02 0.02 0.01 0.00 0.00 0.00 0.00 0.00 0.00 0.00 0.00 0.00 0.00 0.00 0.00 0.00 0.00 0.00 0.00 0.00 0.00 0.00 0.00 0.01 0.00 0.00 0.02 0.00 0.00 0.00 0.00 0.01 0.06 0.02 0.00 0.00 0.00 0.00
0.00 0.05 0.17 0.16 0.03 0.01 0.01 0.00 0.00 0.00 0.00 0.00 0.00 0.00 0.00 0.00 0.00 0.00 0.00 0.00 0.00 0.00 0.00 0.00 0.00 0.00 0.01 0.07 0.06 0.04 0.07 0.01 0.00 0.00 0.00 0.00 0.00 0.02 0.01 0.00 0.01 0.01 0.02
0.00 0.04 0.17 0.09 0.02 0.01 0.00 0.00 0.00 0.00 0.00 0.00 0.00 0.00 0.00 0.00 0.00 0.00 0.00 0.00 0.00 0.00 0.00 0.00 0.00 0.01 0.04 0.10 0.07 0.04 0.01 0.00 0.00 0.00 0.00 0.00 0.00 0.01 0.00 0.00 0.00 0.00 0.01
0.00 0.03 0.08 0.00 0.01 0.00 0.00 0.00 0.00 0.00 0.00 0.00 0.00 0.00 0.00 0.00 0.00 0.00 0.00 0.00 0.00 0.00 0.00 0.00 0.00 0.00 0.01 0.01 0.00 0.00 0.01 0.01 0.03 0.00 0.00 0.00 0.00 0.00 0.00 0.00 0.00 0.00 0.00
0.00 0.03 0.02 0.00 0.00 0.00 0.00 0.00 0.00 0.00 0.00 0.00 0.00 0.00 0.00 0.00 0.00 0.00 0.00 0.00 0.00 0.00 0.00 0.00 0.00 0.00 0.00 0.00 0.00 0.01 0.05 0.08 0.13 0.01 0.00 0.00 0.00 0.00 0.00 0.00 0.00 0.00 0.00
0.00 0.01 0.01 0.01 0.00 0.00 0.00 0.00 0.00 0.00 0.00 0.00 0.00 0.00 0.00 0.00 0.00 0.00 0.00 0.00 0.00 0.00 0.00 0.00 0.00 0.00 0.00 0.00 0.00 0.09 0.07 0.00 0.00 0.00 0.00 0.00 0.00 0.00 0.00 0.01 0.01 0.00 0.01
0.00 0.00 0.00 0.00 0.00 0.00 0.00 0.00 0.00 0.00 0.00 0.00 0.00 0.00 0.00 0.00 0.00 0.00 0.00 0.00 0.00 0.00 0.00 0.00 0.00 0.00 0.00 0.00 0.01 0.06 0.06 0.00 0.00 0.00 0.00 0.00 0.00 0.01 0.03 0.01 0.00 0.00 0.00
0.00 0.00 0.00 0.00 0.00 0.00 0.00 0.00 0.00 0.00 0.00 0.00 0.00 0.00 0.00 0.00 0.00 0.00 0.00 0.00 0.00 0.00 0.00 0.01 0.00 0.00 0.00 0.00 0.00 0.02 0.08 0.01 0.00 0.00 0.00 0.00 0.00 0.01 0.01 0.00 0.00 0.00 0.01
0.00 0.00 0.00 0.00 0.00 0.00 0.00 0.00 0.00 0.00 0.00 0.00 0.00 0.00 0.03 0.01 0.00 0.00 0.00 0.00 0.00 0.00 0.00 0.00 0.01 0.00 0.00 0.00 0.00 0.01 0.01 0.00 0.00 0.00 0.00 0.00 0.00 0.00 0.00 0.00 0.01 0.00 0.02
0.00 0.00 0.00 0.00 0.00 0.00 0.00 0.00 0.00 0.00 0.00 0.00 0.00 0.00 0.04 0.02 0.00 0.00 0.00 0.00 0.01 0.01 0.00 0.00 0.00 0.00 0.01 0.00 0.00 0.00 0.01 0.00 0.00 0.00 0.00 0.00 0.00 0.00 0.00 0.00 0.01 0.01 0.00
0.00 0.00 0.00 0.00 0.00 0.00 0.00 0.00 0.00 0.00 0.00 0.00 0.00 0.00 0.00 0.00 0.01 0.01 0.00 0.01 0.01 0.01 0.05 0.03 0.02 0.02 0.01 0.00 0.00 0.01 0.04 0.00 0.00 0.00 0.00 0.00 0.04 0.00 0.00 0.00 0.00 0.00 0.00
0.00 0.00 0.00 0.00 0.00 0.00 0.00 0.00 0.00 0.00 0.00 0.00 0.00 0.00 0.00 0.00 0.00 0.00 0.00 0.00 0.01 0.01 0.01 0.03 0.02 0.01 0.01 0.00 0.00 0.00 0.00 0.00 0.00 0.00 0.00 0.00 0.02 0.13 0.03 0.00 0.00 0.00 0.01
0.00 0.00 0.00 0.00 0.00 0.00 0.00 0.00 0.00 0.00 0.00 0.00 0.00 0.00 0.00 0.01 0.01 0.00 0.00 0.00 0.00 0.00 0.00 0.00 0.00 0.01 0.00 0.00 0.00 0.00 0.00 0.00 0.00 0.00 0.00 0.00 0.02 0.15 0.13 0.03 0.00 0.00 0.01
0.00 0.00 0.00 0.00 0.00 0.00 0.00 0.00 0.00 0.00 0.00 0.00 0.00 0.00 0.00 0.01 0.01 0.00 0.00 0.00 0.00 0.00 0.00 0.00 0.00 0.01 0.00 0.00 0.00 0.00 0.00 0.00 0.00 0.00 0.00 0.00 0.03 0.03 0.07 0.04 0.02 0.00 0.02
0.00 0.00 0.00 0.00 0.00 0.00 0.00 0.00 0.00 0.00 0.00 0.00 0.00 0.00 0.00 0.01 0.05 0.01 0.01 0.02 0.01 0.01 0.00 0.00 0.00 0.00 0.00 0.00 0.00 0.00 0.00 0.00 0.00 0.00 0.00 0.00 0.01 0.01 0.02 0.01 0.05 0.08 0.01
0.00 0.00 0.00 0.00 0.00 0.00 0.00 0.00 0.00 0.00 0.00 0.00 0.00 0.01 0.03 0.02 0.02 0.01 0.00 0.00 0.01 0.01 0.04 0.01 0.00 0.00 0.00 0.00 0.00 0.00 0.00 0.00 0.00 0.00 0.00 0.00 0.00 0.00 0.00 0.01 0.04 0.07 0.08
0.00 0.00 0.00 0.00 0.00 0.00 0.00 0.00 0.00 0.00 0.00 0.00 0.00 0.00 0.04 0.05 0.03 0.00 0.01 0.00 0.00 0.04 0.02 0.00 0.00 0.00 0.00 0.00 0.00 0.00 0.00 0.00 0.00 0.00 0.00 0.00 0.00 0.00 0.00 0.00 0.01 0.01 0.01
0.00 0.00 0.00 0.00 0.00 0.00 0.00 0.00 0.00 0.00 0.00 0.00 0.00 0.00 0.01 0.03 0.04 0.00 0.00 0.00 0.00 0.00 0.00 0.00 0.00 0.00 0.00 0.00 0.00 0.00 0.00 0.00 0.00 0.00 0.00 0.00 0.00 0.00 0.00 0.00 0.01 0.01 0.01
0.00 0.00 0.00 0.00 0.00 0.00 0.00 0.00 0.00 0.00 0.00 0.00 0.00 0.00 0.00 0.00 0.00 0.00 0.00 0.00 0.00 0.00 0.00 0.00 0.00 0.00 0.00 0.00 0.00 0.00 0.00 0.00 0.00 0.00 0.00 0.00 0.00 0.00 0.00 0.00 0.00 0.00 0.02
0.00 0.00 0.00 0.00 0.00 0.00 0.00 0.00 0.00 0.00 0.00 0.00 0.00 0.00 0.00 0.00 0.00 0.00 0.00 0.00 0.00 0.00 0.00 0.00 0.00 0.00 0.00 0.00 0.00 0.00 0.00 0.00 0.00 0.00 0.00 0.00 0.00 0.00 0.00 0.00 0.00 0.00 0.00
0.00 0.00 0.00 0.00 0.00 0.00 0.00 0.00 0.00 0.00 0.00 0.00 0.00 0.00 0.00 0.00 0.00 0.00 0.00 0.00 0.00 0.00 0.00 0.00 0.00 0.00 0.00 0.00 0.00 0.00 0.00 0.00 0.00 0.00 0.00 0.00 0.00 0.00 0.00 0.00 0.00 0.00 0.00
0.00 0.00 0.00 0.00 0.00 0.00 0.00 0.00 0.00 0.00 0.00 0.00 0.00 0.00 0.00 0.00 0.00 0.00 0.00 0.00 0.00 0.00 0.00 0.00 0.00 0.00 0.00 0.00 0.00 0.00 0.00 0.00 0.00 0.00 0.00 0.00 0.00 0.00 0.00 0.00 0.00 0.00 0.00
0.00 0.00 0.00 0.00 0.00 0.00 0.00 0.00 0.00 0.00 0.00 0.00 0.00 0.00 0.00 0.00 0.00 0.00 0.00 0.00 0.00 0.00 0.00 0.00 0.00 0.00 0.00 0.00 0.00 0.00 0.00 0.00 0.00 0.00 0.00 0.00 0.00 0.00 0.00 0.00 0.00 0.00 0.00
0.00 0.00 0.00 0.00 0.00 0.00 0.00 0.00 0.00 0.00 0.00 0.00 0.00 0.00 0.00 0.00 0.00 0.00 0.00 0.00 0.00 0.00 0.00 0.00 0.00 0.00 0.00 0.00 0.00 0.00 0.00 0.00 0.00 0.00 0.00 0.00 0.00 0.00 0.00 0.00 0.00 0.00 0.00
0.00 0.00 0.00 0.00 0.00 0.00 0.00 0.00 0.00 0.00 0.00 0.00 0.00 0.00 0.00 0.00 0.00 0.00 0.00 0.00 0.00 0.00 0.00 0.00 0.00 0.00 0.00 0.00 0.00 0.00 0.00 0.00 0.00 0.00 0.00 0.00 0.00 0.00 0.00 0.00 0.00 0.00 0.00
MSLP
1014.30 1014.30 1014.43 1014.57 1014.85 1014.93 1015.32 1015.28 1015.56 1015.89 1016.09 1016.26 1016.48 1016.79 1017.19 1017.26 1017.35 1017.43 1017.41 1017.34 1017.35 1017.44 1017.37 1017.35 1017.36 1017.31 1017.36 1017.32 1017.31 1017.39 1017.40 1017.55 1017.66 1017.76 1017.75 1017.87 1017.98 1018.10 1018.28 1018.40 1018.57 1018.59 1018.63
1014.05 1014.50 1014.72 1014.83 1014.92 1015.11 1015.40 1015.63 1015.97 1016.20 1016.26 1016.55 1016.87 1017.19 1017.32 1017.46 1017.54 1017.49 1017.48 1017.54 1017.62 1017.56 1017.54 1017.56 1017.55 1017.58 1017.58 1017.45 1017.57 1017.66 1017.74 1017.76 1017.79 1017.89 1017.96 1018.02 1018.22 1018.43 1018.46 1018.69 1018.84 1018.87 1018.92
1014.53 1014.73 1015.01 1015.03 1015.18 1015.40 1015.70 1016.03 1016.31 1016.37 1016.63 1016.94 1017.17 1017.30 1017.45 1017.62 1017.71 1017.66 1017.69 1017.74 1017.75 1017.69 1017.70 1017.76 1017.78 1017.82 1017.82 1017.73 1017.77 1017.73 1018.02 1018.10 1018.08 1018.17 1018.28 1018.40 1018.40 1018.48 1018.63 1018.79 1018.90 1019.07 1019.21
1014.65 1015.05 1015.23 1015.28 1015.45 1015.64 1016.01 1016.32 1016.48 1016.66 1016.96 1017.15 1017.34 1017.47 1017.65 1017.83 1017.82 1017.75 1017.82 1017.90 1017.92 1017.98 1018.02 1018.01 1018.02 1018.04 1018.09 1017.96 1017.96 1017.95 1018.13 1018.24 1018.39 1018.48 1018.69 1018.63 1018.42 1018.60 1018.86 1018.95 1019.01 1019.22 1019.47
1014.99 1015.25 1015.44 1015.49 1015.71 1015.95 1016.24 1016.56 1016.74 1016.96 1017.15 1017.36 1017.58 1017.67 1017.84 1017.98 1017.94 1017.88 1018.00 1018.08 1018.16 1018.22 1018.18 1018.17 1018.14 1018.06 1018.08 1018.06 1018.10 1018.01 1018.04 1018.16 1018.35 1018.75 1018.91 1018.93 1018.83 1018.81 1018.97 1019.18 1019.38 1019.44 1019.62
1015.20 1015.50 1015.51 1015.69 1015.89 1016.18 1016.49 1016.77 1017.01 1017.15 1017.38 1017.64 1017.77 1017.82 1017.96 1018.06 1018.03 1018.06 1018.22 1018.26 1018.30 1018.28 1018.31 1018.27 1018.26 1018.19 1018.14 1018.14 1018.09 1017.96 1018.18 1018.18 1018.33 1018.92 1019.21 1019.09 1019.06 1019.02 1019.29 1019.35 1019.52 1019.72 1019.89
1015.45 1015.63 1015.74 1015.83 1016.05 1016.35 1016.68 1016.96 1017.19 1017.37 1017.58 1017.77 1017.88 1017.92 1018.07 1018.12 1018.14 1018.24 1018.35 1018.38 1018.40 1018.38 1018.43 1018.41 1018.35 1018.30 1018.29 1018.29 1018.26 1018.28 1018.30 1018.39 1018.76 1019.12 1019.30 1019.41 1019.31 1019.27 1019.40 1019.57 1019.73 1019.88 1020.09
1015.52 1015.69 1015.90 1016.04 1016.25 1016.55 1016.88 1017.14 1017.35 1017.52 1017.67 1017.96 1018.04 1018.05 1018.20 1018.29 1018.35 1018.41 1018.47 1018.46 1018.47 1018.43 1018.44 1018.48 1018.47 1018.47 1018.41 1018.36 1018.28 1018.30 1018.53 1018.79 1019.15 1019.42 1019.51 1019.61 1019.44 1019.39 1019.62 1019.71 1019.95 1020.06 1020.27
1015.60 1015.90 1016.09 1016.26 1016.41 1016.71 1016.99 1017.28 1017.44 1017.62 1017.82 1018.02 1018.09 1018.19 1018.32 1018.44 1018.51 1018.52 1018.56 1018.57 1018.57 1018.53 1018.46 1018.52 1018.51 1018.60 1018.53 1018.50 1018.57 1018.57 1018.72 1019.02 1019.36 1019.55 1019.56 1019.67 1019.57 1019.57 1019.77 1019.92 1020.14 1020.38 1020.50
1015.91 1016.03 1016.29 1016.50 1016.67 1016.92 1017.17 1017.33 1017.51 1017.70 1017.89 1018.13 1018.24 1018.40 1018.50 1018.51 1018.54 1018.56 1018.63 1018.65 1018.58 1018.60 1018.54 1018.57 1018.57 1018.68 1018.61 1018.55 1018.63 1018.80 1018.93 1019.16 1019.36 1019.54 1019.73 1019.84 1019.82 1019.74 1019.96 1020.05 1020.32 1020.56 1020.89
1016.22 1016.37 1016.44 1016.69 1016.92 1017.11 1017.39 1017.46 1017.60 1017.82 1018.02 1018.19 1018.28 1018.46 1018.52 1018.66 1018.79 1018.74 1018.60 1018.56 1018.51 1018.53 1018.64 1018.63 1018.63 1018.71 1018.59 1018.58 1018.79 1018.90 1019.02 1019.48 1019.59 1019.81 1019.95 1019.94 1019.90 1019.87 1020.07 1020.20 1020.38 1020.67 1020.93
1016.03 1016.36 1016.53 1016.70 1016.89 1017.17 1017.33 1017.56 1017.79 1018.02 1018.20 1018.36 1018.45 1018.63 1018.75 1018.87 1018.92 1018.78 1018.66 1018.53 1018.46 1018.46 1018.66 1018.63 1018.58 1018.68 1018.80 1018.74 1018.86 1018.90 1019.24 1019.47 1019.67 1019.78 1019.88 1019.94 1020.05 1019.96 1020.11 1020.27 1020.47 1020.65 1020.87
1015.59 1016.09 1016.38 1016.54 1016.78 1017.09 1017.27 1017.60 1017.93 1018.16 1018.34 1018.50 1018.57 1018.69 1018.82 1018.83 1018.90 1018.93 1018.89 1018.76 1018.68 1018.63 1018.80 1018.92 1018.94 1018.90 1018.87 1018.90 1018.82 1018.98 1019.22 1019.46 1019.62 1019.76 1019.82 1019.83 1019.93 1020.00 1020.01 1020.28 1020.44 1020.67 1020.92
1015.36 1015.68 1016.11 1016.32 1016.60 1016.94 1017.27 1017.57 1017.87 1018.16 1018.34 1018.55 1018.66 1018.76 1018.88 1019.03 1019.15 1019.13 1019.08 1018.92 1018.79 1018.72 1018.72 1018.86 1018.98 1019.12 1019.00 1018.85 1018.84 1018.95 1019.19 1019.41 1019.58 1019.69 1019.85 1019.81 1019.84 1020.00 1020.03 1020.06 1020.46 1020.85 1021.03
1015.06 1015.42 1015.82 1016.13 1016.47 1016.76 1017.20 1017.47 1017.73 1017.92 1018.13 1018.43 1018.70 1018.78 1018.88 1019.01 1019.06 1019.18 1019.12 1019.04 1018.97 1018.84 1018.78 1018.80 1018.89 1018.94 1019.08 1018.99 1019.02 1019.05 1019.16 1019.29 1019.34 1019.63 1019.82 1019.80 1019.80 1019.84 1019.86 1020.02 1020.27 1020.73 1021.02
1014.69 1015.08 1015.47 1015.87 1016.13 1016.53 1016.92 1017.29 1017.46 1017.71 1017.95 1018.32 1018.46 1018.57 1018.71 1018.92 1019.07 1019.12 1019.16 1019.09 1019.00 1018.87 1018.90 1018.84 1018.94 1018.96 1019.02 1019.19 1019.04 1019.11 1019.14 1019.18 1019.47 1019.59 1019.81 1019.80 1019.72 1019.78 1019.84 1019.94 1020.27 1020.41 1020.60
1014.22 1014.67 1015.12 1015.55 1015.85 1016.37 1016.78 1017.07 1017.38 1017.56 1017.80 1018.01 1018.10 1018.29 1018.50 1018.68 1018.93 1018.97 1019.05 1019.06 1018.95 1018.93 1018.91 1019.03 1019.01 1019.07 1019.06 1019.22 1019.48 1019.40 1019.16 1019.18 1019.29 1019.41 1019.61 1019.76 1019.78 1019.74 1019.80 1019.91 1020.17 1020.40 1020.56
1013.84 1014.28 1014.79 1015.21 1015.74 1016.18 1016.54 1016.74 1017.06 1017.37 1017.56 1017.64 1017.71 1017.86 1018.11 1018.40 1018.66 1018.80 1018.87 1018.93 1018.86 1018.98 1018.98 1019.14 1019.34 1019.45 1019.52 1019.56 1019.58 1019.61 1019.32 1019.18 1019.03 1019.18 1019.54 1019.82 1019.89 1019.90 1019.91 1019.88 1020.12 1020.36 1020.48
1013.08 1013.69 1014.30 1014.79 1015.23 1015.79 1016.14 1016.45 1016.70 1016.99 1017.26 1017.24 1017.34 1017.58 1017.80 1018.05 1018.38 1018.48 1018.67 1018.91 1018.85 1018.99 1019.11 1019.25 1019.55 1019.60 1019.77 1019.86 1019.77 1019.66 1019.61 1019.40 1019.10 1019.24 1019.47 1019.63 1019.87 1019.99 1020.10 1020.11 1020.15 1020.26 1020.52
1012.57 1013.12 1013.78 1014.35 1014.77 1015.35 1015.93 1016.32 1016.60 1016.89 1016.93 1017.03 1017.08 1017.26 1017.42 1017.61 1017.78 1018.11 1018.49 1018.71 1018.79 1019.00 1019.31 1019.43 1019.62 1019.77 1019.94 1020.11 1019.98 1020.03 1020.05 1019.74 1019.72 1019.67 1019.64 1019.74 1019.95 1020.02 1020.10 1020.30 1020.51 1020.59 1020.61
1012.10 1012.66 1013.16 1013.88 1014.30 1014.98 1015.61 1016.18 1016.49 1016.64 1016.72 1016.76 1016.65 1016.64 1016.93 1017.18 1017.44 1017.82 1018.28 1018.50 1018.59 1018.92 1019.19 1019.45 1019.78 1019.98 1020.12 1020.30 1020.32 1020.46 1020.42 1020.25 1020.20 1020.15 1020.11 1020.04 1019.90 1020.00 1020.31 1020.59 1020.76 1020.89 1020.89
1011.20 1011.72 1012.35 1012.83 1013.57 1014.09 1014.65 1015.13 1015.51 1015.80 1016.05 1016.13 1016.10 1016.27 1016.47 1016.81 1017.16 1017.49 1017.94 1018.27 1018.44 1018.82 1019.13 1019.48 1019.76 1020.11 1020.31 1020.45 1020.70 1020.95 1020.96 1020.85 1020.69 1020.77 1020.63 1020.42 1020.43 1020.43 1020.44 1020.68 1020.88 1021.07 1021.19
1010.32 1010.90 1011.45 1011.85 1012.53 1013.25 1013.85 1014.65 1015.26 1015.57 1015.82 1016.07 1016.19 1016.29 1016.35 1016.56 1016.70 1017.03 1017.49 1017.91 1018.19 1018.58 1018.94 1019.41 1019.65 1019.94 1020.23 1020.54 1020.53 1020.66 1021.25 1021.24 1021.29 1021.11 1021.07 1021.02 1021.01 1020.99 1020.98 1020.98 1021.09 1021.24 1021.35
1008.97 1009.88 1010.62 1011.46 1012.12 1012.67 1013.26 1013.87 1014.36 1014.68 1015.06 1015.31 1015.56 1015.84 1016.06 1016.11 1016.31 1016.69 1017.16 1017.61 1017.92 1018.23 1018.76 1019.05 1019.33 1019.69 1019.96 1020.36 1020.72 1020.81 1020.91 1021.04 1021.32 1021.71 1021.49 1021.44 1021.36 1021.31 1021.30 1021.29 1021.29 1021.32 1021.41
1008.24 1008.91 1009.57 1010.36 1011.11 1011.71 1012.29 1012.72 1013.44 1014.00 1014.23 1014.60 1015.06 1015.39 1015.69 1015.82 1015.97 1016.23 1016.72 1017.22 1017.72 1017.93 1018.37 1018.70 1019.06 1019.41 1019.79 1020.18 1020.52 1020.91 1021.15 1021.21 1021.20 1021.38 1021.61 1021.60 1021.54 1021.42 1021.31 1021.39 1021.39 1021.36 1021.47
1007.62 1008.47 1009.07 1009.75 1010.18 1010.87 1011.55 1012.03 1012.55 1013.10 1013.68 1014.29 1014.77 1015.10 1015.36 1015.58 1015.77 1015.89 1016.30 1016.68 1017.13 1017.48 1018.01 1018.35 1018.74 1019.20 1019.54 1019.96 1020.27 1020.50 1020.60 1020.85 1021.06 1021.16 1021.51 1021.64 1021.59 1021.46 1021.43 1021.38 1021.39 1021.39 1021.42
Thickness
5759 5760 5760 5760 5758 5758 5754 5756 5754 5751 5749 5748 5748 5746 5742 5742 5742 5741 5741 5742 5743 5744 5745 5745 5745 5746 5746 5746 5746 5745 5746 5744 5743 5742 5742 5741 5739 5739 5738 5739 5741 5742 5743
5764 5761 5760 5759 5758 5758 5756 5754 5751 5750 5750 5749 5748 5745 5743 5742 5741 5742 5743 5742 5742 5744 5745 5746 5746 5746 5746 5747 5746 5746 5744 5743 5743 5743 5743 5741 5739 5738 5739 5739 5740 5741 5742
5762 5760 5758 5759 5758 5757 5755 5752 5750 5752 5750 5749 5748 5745 5744 5742 5742 5743 5743 5743 5744 5745 5745 5745 5746 5746 5747 5747 5747 5747 5744 5742 5742 5741 5741 5740 5740 5740 5740 5740 5740 5740 5740
5762 5759 5758 5758 5757 5757 5754 5751 5751 5751 5749 5749 5746 5745 5743 5741 5742 5744 5744 5744 5744 5745 5745 5745 5746 5746 5745 5746 5747 5747 5745 5743 5741 5740 5740 5740 5741 5740 5738 5739 5739 5739 5738
5761 5759 5758 5757 5756 5755 5753 5751 5751 5750 5749 5746 5743 5743 5742 5740 5742 5745 5744 5744 5744 5744 5745 5746 5745 5745 5746 5747 5746 5746 5746 5744 5742 5739 5738 5738 5739 5739 5738 5738 5736 5736 5736
5761 5758 5758 5757 5756 5754 5752 5751 5750 5749 5747 5743 5742 5743 5742 5742 5744 5745 5744 5744 5744 5745 5745 5745 5745 5745 5745 5745 5746 5746 5744 5743 5740 5737 5736 5736 5737 5737 5737 5737 5737 5735 5734
5760 5758 5757 5757 5756 5754 5752 5751 5749 5747 5745 5744 5743 5744 5743 5743 5745 5745 5745 5744 5744 5744 5744 5744 5746 5746 5745 5744 5743 5743 5743 5741 5739 5736 5736 5735 5736 5736 5736 5736 5735 5735 5734
5761 5759 5757 5756 5755 5753 5751 5750 5748 5747 5746 5744 5744 5745 5744 5745 5746 5746 5746 5745 5746 5745 5745 5745 5746 5746 5746 5745 5746 5744 5741 5736 5730 5730 5733 5735 5736 5736 5736 5736 5735 5735 5734
5760 5757 5757 5756 5755 5753 5751 5749 5748 5748 5746 5745 5746 5747 5746 5747 5747 5748 5747 5747 5747 5747 5747 5747 5747 5747 5747 5747 5745 5743 5740 5736 5732 5728 5731 5735 5736 5736 5735 5735 5734 5733 5733
5758 5758 5757 5756 5755 5753 5751 5750 5749 5749 5748 5747 5748 5748 5748 5749 5750 5750 5750 5750 5749 5749 5750 5750 5749 5748 5749 5749 5747 5744 5741 5738 5736 5733 5733 5733 5734 5735 5734 5733 5732 5731 5729
5757 5758 5757 5756 5755 5753 5752 5751 5750 5750 5749 5749 5750 5751 5750 5752 5752 5752 5753 5753 5752 5752 5752 5752 5751 5750 5750 5750 5747 5746 5744 5740 5738 5735 5734 5733 5734 5733 5732 5731 5731 5729 5728
5758 5758 5759 5758 5757 5755 5754 5753 5752 5751 5751 5752 5752 5753 5753 5753 5754 5755 5755 5756 5755 5755 5753 5753 5753 5751 5750 5751 5749 5746 5744 5742 5740 5738 5736 5734 5732 5732 5731 5730 5730 5729 5728
5764 5762 5762 5761 5760 5758 5757 5755 5754 5754 5753 5753 5754 5755 5755 5756 5756 5756 5756 5757 5757 5757 5756 5755 5754 5753 5752 5750 5750 5747 5745 5742 5740 5739 5737 5736 5734 5732 5732 5730 5728 5728 5726
5767 5766 5766 5764 5763 5762 5759 5758 5756 5756 5756 5756 5756 5756 5756 5756 5755 5755 5756 5758 5759 5759 5758 5757 5755 5753 5752 5751 5751 5750 5746 5744 5742 5740 5738 5738 5736 5734 5733 5732 5728 5725 5724
5769 5769 5769 5768 5766 5765 5763 5761 5760 5760 5759 5758 5757 5757 5757 5756 5757 5755 5756 5757 5758 5759 5760 5758 5757 5755 5753 5751 5750 5749 5749 5747 5745 5741 5739 5739 5738 5737 5736 5734 5730 5726 5724
5774 5772 5773 5771 5769 5768 5766 5765 5764 5764 5762 5760 5760 5760 5759 5758 5757 5756 5756 5758 5758 5759 5758 5758 5757 5755 5753 5751 5751 5749 5748 5748 5744 5742 5739 5739 5738 5738 5736 5735 5731 5729 5726
5777 5777 5775 5774 5772 5770 5769 5767 5767 5766 5765 5764 5764 5763 5762 5761 5759 5758 5758 5759 5759 5758 5757 5755 5755 5754 5754 5752 5750 5749 5749 5748 5745 5744 5742 5740 5739 5738 5737 5735 5732 5730 5727
5781 5779 5779 5779 5775 5773 5771 5770 5769 5769 5768 5768 5768 5767 5766 5764 5761 5760 5760 5761 5760 5757 5756 5754 5753 5751 5750 5750 5748 5747 5748 5748 5748 5746 5742 5739 5737 5737 5736 5734 5732 5730 5728
5787 5786 5783 5782 5779 5776 5774 5773 5772 5772 5771 5772 5770 5770 5768 5767 5764 5763 5763 5761 5760 5757 5755 5754 5751 5750 5747 5746 5746 5745 5745 5746 5748 5745 5742 5740 5737 5735 5733 5732 5731 5729 5726
5792 5791 5788 5786 5785 5781 5778 5775 5774 5774 5774 5773 5774 5773 5771 5770 5769 5766 5764 5762 5759 5757 5754 5752 5751 5749 5746 5744 5744 5742 5739 5741 5740 5739 5739 5737 5736 5733 5731 5729 5727 5725 5724
5795 5794 5794 5789 5788 5784 5779 5775 5773 5774 5775 5776 5778 5778 5776 5774 5772 5769 5766 5762 5760 5757 5755 5753 5749 5746 5744 5742 5738 5736 5735 5735 5734 5733 5733 5732 5732 5732 5729 5726 5723 5722 5722
5801 5801 5800 5799 5795 5792 5788 5785 5783 5781 5780 5781 5782 5780 5780 5778 5775 5772 5767 5763 5760 5757 5755 5752 5749 5744 5742 5740 5733 5728 5723 5726 5728 5726 5727 5729 5728 5727 5726 5723 5721 5719 5717
5807 5807 5806 5805 5802 5799 5795 5789 5784 5782 5780 5779 5780 5781 5782 5780 5779 5775 5770 5765 5762 5759 5755 5752 5749 5745 5740 5738 5736 5731 5718 5714 5715 5720 5719 5720 5720 5720 5719 5719 5718 5716 5714
5816 5814 5810 5806 5803 5802 5799 5794 5790 5788 5784 5786 5786 5786 5783 5782 5780 5776 5771 5766 5764 5760 5756 5753 5751 5747 5743 5737 5733 5730 5727 5722 5712 5705 5712 5713 5714 5715 5714 5714 5713 5712 5711
5821 5819 5817 5812 5809 5808 5805 5803 5797 5793 5793 5792 5789 5787 5785 5783 5781 5777 5773 5769 5765 5762 5759 5756 5752 5748 5743 5738 5732 5727 5722 5718 5716 5709 5704 5708 5711 5712 5712 5711 5709 5708 5706
5826 5821 5820 5815 5814 5811 5808 5806 5802 5797 5793 5789 5787 5786 5785 5783 5782 5779 5775 5772 5768 5765 5761 5758 5754 5749 5744 5739 5735 5730 5726 5720 5715 5712 5706 5705 5707 5708 5708 5707 5706 5706 5704